Regional Weather Roundup
Issued by NWS Newport/Morehead, NC

Current Version | Previous Version | Graphics & Text | Print | Product List | Glossary Off
Versions: 1 2 3 4 5 6 7 8 9 10 11 12 13 14 15 16 17 18 19 20 21 22 23 24 25 26 27 28 29 30 31 32 33 34 35 36 37 38 39 40 41 42 43 44 45 46 47 48 49 50

000
ASUS42 KMHX 231110
RWRMHX
WEATHER ROUNDUP FOR EASTERN NORTH CAROLINA
NATIONAL WEATHER SERVICE NEWPORT/MOREHEAD CITY NC
700 AM EDT WED APR 23 2014

NOTE: "FAIR" INDICATES FEW OR NO CLOUDS BELOW 12,000 FEET
WITH NO SIGNIFICANT WEATHER AND/OR OBSTRUCTIONS TO VISIBILITY

NCZ015>017-031-032-045>047-102-103-231200-
NORTH COAST

CITY           SKY/WX    TMP DP  RH WIND       PRES   REMARKS
EDENTON        CLEAR     57  54  89 N3        29.71R
ELIZABETH CITY CLEAR     58  48  69 N16       29.70R
KITTY HAWK     SUNNY     56  50  80 N13G20    29.68R
MANTEO         CLEAR     58  50  75 N21       29.69R

$$

NCZ045>047-081-094-103-104-231200-
CENTRAL COAST

CITY           SKY/WX    TMP DP  RH WIND       PRES   REMARKS
FRISCO         CLEAR     60  32  34 W9        29.68R
SWANQUARTER      N/A     61 N/A N/A NW5G12    29.68R

$$

NCZ095-097-098-100-101-231200-
SOUTHERN COAST

CITY           SKY/WX    TMP DP  RH WIND       PRES   REMARKS
BEAUFORT       CLEAR     61  57  87 NW8       29.71R
CEDAR ISLAND     N/A     63 N/A N/A W15       29.71S
JACKSONVILLE   CLEAR     60  60 100 W10       29.73R
NEWPORT          N/A     61  57  88 NW6         N/A
PINEY ISLAND   SUNNY     63  58  83 W13       29.70R
WILMINGTON     CLEAR     61  58  90 W6        29.75R FOG


$$

NCZ011>013-027>030-043-044-078>080-089-090>093-098-231200-
COASTAL PLAIN

CITY           SKY/WX    TMP DP  RH WIND       PRES   REMARKS
AHOSKIE        CLEAR     56  50  78 N5        29.73R
CLINTON        CLEAR     57  56  97 CALM      29.76R
ELIZABETHTOWN  CLEAR     59  57  92 CALM      29.76R
GOLDSBORO      PTCLDY    56  56  98 W5        29.73R
GREENVILLE     CLEAR     59  54  82 NW3       29.77R
HAVELOCK       CLEAR     60  55  83 W8        29.73R
KENANSVILLE    CLEAR     58  54  87 W5        29.76R
KINSTON        CLEAR     61  55  82 W5        29.75R FOG
NEW BERN       CLEAR     62  55  77 NW6       29.73R
RICHLANDS      CLEAR     59  59 100 W6        29.75R
ROANOKE RAPIDS NOT AVBL
ROCKY MOUNT    CLEAR     59  51  75 NW6       29.74R
WASHINGTON     CLEAR     60  56  84 NW6       29.72R
WHITEVILLE     CLEAR     60  58  93 CALM      29.77R FOG

$$

AMZ130-135-150-152-154-156-158-170-250-252-270-ANZ085-086-088-633-658-670-231200-
MARINE OBSERVATIONS

STATION/POSITION TIME  TEMP    WIND        PRES    WAVE   SWELL
                       AIR SEA DIR/SP/G            HT/PER HT/PER
                 (UTC) (F)     (DEG/KT/KT) (MB)    (FT/S) (FT/S)
CHESAPEAKE LIGHT 1000   54     350/ 24/ 25 1004.9
BUOY 44014       1100   53 49  360/ 19/ 21 1003.8    4/ 9   3/ 9
DUCK             1100   53 48  350/ 17/ 19 1004.3
2E DUCK          1100      49                N/A     3/ 9
OREGON INLET     1100   57 54  340/ 12/ 18 1005.1
BUOY 44095       1100      51                N/A     4/ 9
HATTERAS CG      1100   62 58  280/ 14/ 15 1004.9
DIAMOND BUOY     1100   68 76  290/ 17/ 21 1004.1    4/ 9   3/ 9
CAPE LOOKOUT     1000   61     250/ 11/ 14 1005.0
BEAUFORT LAB     1100   62 61  310/  4/  8 1005.4
30 SE NEW RIVER  1100   65 68  270/ 17/ 19 1006.6    4/ 6   2/ 9
5 SE WRIGHTSVILL 1000   62 60  260/  8/ 10 1006.3
FRYING PAN BUOY  1100   65 67  280/ 16/ 19 1007.0    3/ 5   2/ 8
BUOY 41001       NOT AVBL
BUOY 41002       NOT AVBL
BUOY 41004       1100   66 68  260/ 14/ 16 1008.7    3/ 9   2/ 9

$$



USA.gov is the U.S. government's official web portal to all federal, state and local government web resources and services.